| time (UTC) | temp F | wind direction | speed MPH | gust MPH | rain 1hr in | rain 24hr in | rain mn in | humidity % | barometer mb |
| 20260510181323 | 93 | 251 | 6.0 | 10.0 | 0.00 | 0.00 | 0.00 | 10 | 1023.5 |
| 20260510180329 | 93 | 273 | 4.0 | 8.0 | 0.00 | 0.00 | 0.00 | 10 | 1023.5 |
| 20260510175337 | 92 | 257 | 4.0 | 9.0 | 0.00 | 0.00 | 0.00 | 10 | 1023.4 |
| 20260510174346 | 91 | 267 | 4.0 | 8.0 | 0.00 | 0.00 | 0.00 | 11 | 1023.5 |
| 20260510173340 | 90 | 158 | 5.0 | 7.0 | 0.00 | 0.00 | 0.00 | 11 | 1023.4 |
| 20260510172327 | 90 | 237 | 7.0 | 11.0 | 0.00 | 0.00 | 0.00 | 11 | 1023.4 |
| 20260510171335 | 90 | 244 | 7.0 | 10.0 | 0.00 | 0.00 | 0.00 | 11 | 1023.5 |
| 20260510170343 | 89 | 230 | 2.0 | 7.0 | 0.00 | 0.00 | 0.00 | 11 | 1023.4 |
| 20260510165330 | 89 | 240 | 4.0 | 9.0 | 0.00 | 0.00 | 0.00 | 11 | 1023.5 |
| 20260510164338 | 87 | 273 | 3.0 | 9.0 | 0.00 | 0.00 | 0.00 | 12 | 1023.4 |
| 20260510163327 | 87 | 251 | 3.0 | 8.0 | 0.00 | 0.00 | 0.00 | 12 | 1023.4 |
| 20260510162336 | 86 | 238 | 5.0 | 8.0 | 0.00 | 0.00 | 0.00 | 12 | 1023.4 |
| 20260510161321 | 85 | 262 | 5.0 | 9.0 | 0.00 | 0.00 | 0.00 | 12 | 1023.4 |
| 20260510160328 | 85 | 211 | 5.0 | 7.0 | 0.00 | 0.00 | 0.00 | 13 | 1023.3 |
| 20260510155333 | 85 | 213 | 5.0 | 9.0 | 0.00 | 0.00 | 0.00 | 12 | 1023.3 |
| 20260510154358 | 85 | 225 | 5.0 | 8.0 | 0.00 | 0.00 | 0.00 | 13 | 1023.3 |
| 20260510153325 | 84 | 194 | 3.0 | 7.0 | 0.00 | 0.00 | 0.00 | 13 | 1023.3 |
| 20260510152330 | 83 | 225 | 3.0 | 7.0 | 0.00 | 0.00 | 0.00 | 13 | 1023.2 |
| 20260510151333 | 83 | 169 | 3.0 | 6.0 | 0.00 | 0.00 | 0.00 | 13 | 1023.2 |
| 20260510150340 | 84 | 231 | 2.0 | 4.0 | 0.00 | 0.00 | 0.00 | 15 | 1023.2 |
| 20260510145343 | 84 | 38 | 0.0 | 3.0 | 0.00 | 0.00 | 0.00 | 13 | 1023.1 |
| 20260510144326 | 83 | 16 | 0.0 | 3.0 | 0.00 | 0.00 | 0.00 | 14 | 1023.1 |
| 20260510143340 | 82 | 80 | 0.0 | 2.0 | 0.00 | 0.00 | 0.00 | 14 | 1023.0 |
| 20260510142324 | 81 | 80 | 1.0 | 3.0 | 0.00 | 0.00 | 0.00 | 15 | 1023.0 |
| 20260510141332 | 80 | 80 | 1.0 | 3.0 | 0.00 | 0.00 | 0.00 | 15 | 1023.0 |
| 20260510140343 | 79 | 80 | 1.0 | 4.0 | 0.00 | 0.00 | 0.00 | 15 | 1022.9 |
| 20260510135326 | 79 | 82 | 2.0 | 3.0 | 0.00 | 0.00 | 0.00 | 15 | 1022.8 |
| 20260510134332 | 78 | 82 | 1.0 | 2.0 | 0.00 | 0.00 | 0.00 | 16 | 1022.8 |
| 20260510133347 | 77 | 82 | 1.0 | 2.0 | 0.00 | 0.00 | 0.00 | 16 | 1022.7 |
| 20260510132327 | 75 | 82 | 1.0 | 2.0 | 0.00 | 0.00 | 0.00 | 17 | 1022.5 |
| 20260510131334 | 74 | 82 | 1.0 | 3.0 | 0.00 | 0.00 | 0.00 | 18 | 1022.4 |
| 20260510130324 | 73 | 82 | 3.0 | 4.0 | 0.00 | 0.00 | 0.00 | 18 | 1022.4 |
| 20260510125332 | 72 | 111 | 1.0 | 3.0 | 0.00 | 0.00 | 0.00 | 19 | 1022.3 |
| 20260510124340 | 73 | 97 | 3.0 | 6.0 | 0.00 | 0.00 | 0.00 | 18 | 1022.2 |
| 20260510123330 | 75 | 144 | 3.0 | 7.0 | 0.00 | 0.00 | 0.00 | 16 | 1022.1 |
| 20260510122334 | 75 | 166 | 5.0 | 7.0 | 0.00 | 0.00 | 0.00 | 16 | 1022.0 |
| 20260510121322 | 74 | 163 | 5.0 | 7.0 | 0.00 | 0.00 | 0.00 | 17 | 1021.9 |
| 20260510120335 | 74 | 173 | 5.0 | 7.0 | 0.00 | 0.00 | 0.00 | 17 | 1021.9 |
| 20260510115322 | 73 | 182 | 6.0 | 8.0 | 0.00 | 0.00 | 0.00 | 18 | 1021.9 |
| 20260510114326 | 73 | 193 | 6.0 | 10.0 | 0.00 | 0.00 | 0.00 | 18 | 1021.9 |
| 20260510113339 | 73 | 193 | 7.0 | 9.0 | 0.00 | 0.00 | 0.00 | 18 | 1021.8 |
| 20260510112328 | 73 | 210 | 6.0 | 10.0 | 0.00 | 0.00 | 0.00 | 18 | 1021.7 |
| 20260510111337 | 72 | 186 | 7.0 | 11.0 | 0.00 | 0.00 | 0.00 | 19 | 1021.8 |
| 20260510110327 | 72 | 205 | 2.0 | 5.0 | 0.00 | 0.00 | 0.00 | 18 | 1021.5 |
| 20260510105336 | 73 | 61 | 2.0 | 3.0 | 0.00 | 0.00 | 0.00 | 18 | 1021.4 |
| 20260510104344 | 73 | 61 | 1.0 | 6.0 | 0.00 | 0.00 | 0.00 | 18 | 1021.5 |
| 20260510103331 | 73 | 66 | 2.0 | 7.0 | 0.00 | 0.00 | 0.00 | 18 | 1021.6 |
| 20260510102323 | 74 | 36 | 4.0 | 9.0 | 0.00 | 0.00 | 0.00 | 18 | 1021.5 |
| 20260510101327 | 75 | 63 | 3.0 | 5.0 | 0.00 | 0.00 | 0.00 | 17 | 1021.4 |
| 20260510100322 | 78 | 43 | 3.0 | 5.0 | 0.00 | 0.00 | 0.00 | 15 | 1021.3 |
| 20260510095327 | 79 | 314 | 3.0 | 4.0 | 0.00 | 0.00 | 0.00 | 14 | 1021.2 |
| 20260510094325 | 79 | 163 | 0.0 | 0.0 | 0.00 | 0.00 | 0.00 | 14 | 1021.1 |
| 20260510093405 | 80 | 163 | 0.0 | 3.0 | 0.00 | 0.00 | 0.00 | 14 | 1021.2 |
| 20260510092325 | 80 | 163 | 2.0 | 5.0 | 0.00 | 0.00 | 0.00 | 14 | 1021.2 |
| 20260510091333 | 79 | 163 | 3.0 | 7.0 | 0.00 | 0.00 | 0.00 | 15 | 1021.2 |
| 20260510090327 | 79 | 170 | 6.0 | 8.0 | 0.00 | 0.00 | 0.00 | 15 | 1021.2 |
| 20260510085357 | 77 | 178 | 5.0 | 7.0 | 0.00 | 0.00 | 0.00 | 16 | 1021.2 |
| 20260510084329 | 78 | 174 | 3.0 | 5.0 | 0.00 | 0.00 | 0.00 | 15 | 1021.4 |
| 20260510083324 | 77 | 187 | 4.0 | 6.0 | 0.00 | 0.00 | 0.00 | 16 | 1021.4 |
| 20260510082358 | 78 | 161 | 6.0 | 9.0 | 0.00 | 0.00 | 0.00 | 16 | 1021.4 |
| 20260510081323 | 77 | 196 | 6.0 | 9.0 | 0.00 | 0.00 | 0.00 | 16 | 1021.5 |
| 20260510080329 | 78 | 186 | 6.0 | 8.0 | 0.00 | 0.00 | 0.00 | 16 | 1021.5 |
| 20260510075322 | 78 | 135 | 2.0 | 6.0 | 0.00 | 0.00 | 0.00 | 15 | 1021.7 |
| 20260510074330 | 77 | 113 | 3.0 | 7.0 | 0.00 | 0.00 | 0.00 | 16 | 1021.7 |
| 20260510073322 | 79 | 195 | 3.0 | 4.0 | 0.00 | 0.00 | 0.00 | 15 | 1021.7 |
| 20260510072339 | 79 | 216 | 2.0 | 5.0 | 0.00 | 0.00 | 0.00 | 15 | 1021.8 |
| 20260510071326 | 79 | 216 | 4.0 | 6.0 | 0.00 | 0.00 | 0.00 | 15 | 1021.8 |
| 20260510070335 | 79 | 216 | 5.0 | 7.0 | 0.00 | 0.00 | 0.00 | 16 | 1021.7 |
| 20260510065340 | 78 | 217 | 6.0 | 7.0 | 0.00 | 0.00 | 0.00 | 16 | 1021.6 |
| 20260510064323 | 78 | 221 | 6.0 | 8.0 | 0.00 | 0.00 | 0.00 | 16 | 1021.5 |
| 20260510063339 | 78 | 219 | 6.0 | 8.0 | 0.00 | 0.00 | 0.00 | 16 | 1021.4 |
| 20260510062345 | 77 | 211 | 7.0 | 8.0 | 0.00 | 0.00 | 0.00 | 17 | 1021.2 |
| 20260510061333 | 77 | 241 | 7.0 | 11.0 | 0.00 | 0.00 | 0.00 | 17 | 1021.1 |
| 20260510060323 | 76 | 219 | 8.0 | 15.0 | 0.00 | 0.00 | 0.00 | 17 | 1020.9 |
| 20260510055358 | 81 | 238 | 7.0 | 9.0 | 0.00 | 0.00 | 0.00 | 14 | 1020.7 |
| 20260510054321 | 82 | 16 | 2.0 | 3.0 | 0.00 | 0.00 | 0.00 | 13 | 1020.4 |
| 20260510053337 | 82 | 16 | 2.0 | 3.0 | 0.00 | 0.00 | 0.00 | 13 | 1020.3 |
| 20260510052324 | 82 | 16 | 1.0 | 2.0 | 0.00 | 0.00 | 0.00 | 12 | 1020.3 |
| 20260510051332 | 83 | 16 | 0.0 | 2.0 | 0.00 | 0.00 | 0.00 | 12 | 1020.4 |
| 20260510050323 | 83 | 16 | 1.0 | 3.0 | 0.00 | 0.00 | 0.00 | 12 | 1020.2 |
| 20260510045334 | 83 | 16 | 2.0 | 3.0 | 0.00 | 0.00 | 0.00 | 12 | 1020.2 |
| 20260510044339 | 84 | 16 | 3.0 | 4.0 | 0.00 | 0.00 | 0.00 | 12 | 1019.9 |
| 20260510043328 | 84 | 360 | 3.0 | 3.0 | 0.00 | 0.00 | 0.00 | 12 | 1019.9 |
| 20260510042336 | 84 | 53 | 1.0 | 3.0 | 0.00 | 0.00 | 0.00 | 12 | 1019.8 |
| 20260510041324 | 84 | 53 | 2.0 | 4.0 | 0.00 | 0.00 | 0.00 | 12 | 1019.6 |
| 20260510040401 | 84 | 360 | 2.0 | 3.0 | 0.00 | 0.00 | 0.00 | 12 | 1019.6 |
| 20260510035356 | 84 | 34 | 2.0 | 3.0 | 0.00 | 0.00 | 0.00 | 12 | 1019.6 |
| 20260510034342 | 85 | 34 | 2.0 | 3.0 | 0.00 | 0.00 | 0.00 | 12 | 1019.4 |
| 20260510033336 | 85 | 34 | 2.0 | 3.0 | 0.00 | 0.00 | 0.00 | 12 | 1019.1 |
| 20260510032325 | 86 | 34 | 2.0 | 3.0 | 0.00 | 0.00 | 0.00 | 12 | 1019.0 |
| 20260510031333 | 86 | 34 | 2.0 | 3.0 | 0.00 | 0.00 | 0.00 | 12 | 1019.0 |
| 20260510030344 | 86 | 340 | 2.0 | 3.0 | 0.00 | 0.00 | 0.00 | 12 | 1018.9 |
| 20260510025322 | 86 | 340 | 1.0 | 2.0 | 0.00 | 0.00 | 0.00 | 12 | 1018.8 |
| 20260510024331 | 87 | 340 | 1.0 | 3.0 | 0.00 | 0.00 | 0.00 | 12 | 1018.7 |
| 20260510023330 | 87 | 340 | 2.0 | 5.0 | 0.00 | 0.00 | 0.00 | 11 | 1018.6 |
| 20260510022340 | 88 | 332 | 3.0 | 6.0 | 0.00 | 0.00 | 0.00 | 11 | 1018.5 |
| 20260510021331 | 89 | 320 | 4.0 | 6.0 | 0.00 | 0.00 | 0.00 | 11 | 1018.4 |
| 20260510020345 | 90 | 336 | 5.0 | 9.0 | 0.00 | 0.00 | 0.00 | 10 | 1018.4 |
| 20260510015333 | 91 | 336 | 6.0 | 13.0 | 0.00 | 0.00 | 0.00 | 10 | 1018.4 |
| 20260510014346 | 91 | 355 | 5.0 | 12.0 | 0.00 | 0.00 | 0.00 | 10 | 1018.3 |
| 20260510013345 | 92 | 312 | 8.0 | 12.0 | 0.00 | 0.00 | 0.00 | 10 | 1018.3 |
| 20260510012327 | 92 | 285 | 7.0 | 14.0 | 0.00 | 0.00 | 0.00 | 10 | 1018.2 |
| 20260510011336 | 93 | 333 | 9.0 | 13.0 | 0.00 | 0.00 | 0.00 | 10 | 1018.3 |
| 20260510010344 | 93 | 269 | 7.0 | 16.0 | 0.00 | 0.00 | 0.00 | 10 | 1018.3 |
| 20260510005327 | 93 | 325 | 10.0 | 16.0 | 0.00 | 0.00 | 0.00 | 10 | 1018.4 |
| 20260510004335 | 93 | 320 | 8.0 | 17.0 | 0.00 | 0.00 | 0.00 | 10 | 1018.3 |
| 20260510003354 | 94 | 332 | 5.0 | 13.0 | 0.00 | 0.00 | 0.00 | 10 | 1018.4 |
| 20260510002322 | 94 | 355 | 7.0 | 16.0 | 0.00 | 0.00 | 0.00 | 10 | 1018.4 |
| 20260510001330 | 93 | 324 | 10.0 | 17.0 | 0.00 | 0.00 | 0.00 | 9 | 1018.4 |
| 20260510000321 | 95 | 355 | 10.0 | 16.0 | 0.00 | 0.00 | 0.00 | 9 | 1018.5 |
| 20260509235330 | 95 | 309 | 8.0 | 19.0 | 0.00 | 0.00 | 0.00 | 9 | 1018.5 |
| 20260509234335 | 95 | 301 | 5.0 | 13.0 | 0.00 | 0.00 | 0.00 | 10 | 1018.5 |
| 20260509233327 | 96 | 338 | 10.0 | 16.0 | 0.00 | 0.00 | 0.00 | 9 | 1018.6 |
| 20260509232335 | 95 | 318 | 8.0 | 18.0 | 0.00 | 0.00 | 0.00 | 9 | 1018.5 |
| 20260509231327 | 95 | 338 | 9.0 | 16.0 | 0.00 | 0.00 | 0.00 | 9 | 1018.6 |
| 20260509230338 | 96 | 254 | 7.0 | 14.0 | 0.00 | 0.00 | 0.00 | 9 | 1018.7 |
| 20260509225325 | 95 | 298 | 10.0 | 16.0 | 0.00 | 0.00 | 0.00 | 9 | 1018.9 |
| 20260509224333 | 95 | 289 | 10.0 | 17.0 | 0.00 | 0.00 | 0.00 | 10 | 1019.0 |
| 20260509223327 | 95 | 254 | 11.0 | 18.0 | 0.00 | 0.00 | 0.00 | 9 | 1019.1 |
| 20260509222337 | 95 | 317 | 8.0 | 16.0 | 0.00 | 0.00 | 0.00 | 9 | 1019.3 |
| 20260509221327 | 95 | 287 | 10.0 | 16.0 | 0.00 | 0.00 | 0.00 | 9 | 1019.2 |
| 20260509220338 | 95 | 292 | 9.0 | 15.0 | 0.00 | 0.00 | 0.00 | 9 | 1019.5 |
| 20260509215346 | 95 | 268 | 7.0 | 17.0 | 0.00 | 0.00 | 0.00 | 9 | 1019.6 |
| 20260509214353 | 95 | 309 | 6.0 | 16.0 | 0.00 | 0.00 | 0.00 | 10 | 1019.8 |
| 20260509213347 | 95 | 335 | 4.0 | 14.0 | 0.00 | 0.00 | 0.00 | 10 | 1020.2 |
| 20260509212333 | 95 | 323 | 8.0 | 16.0 | 0.00 | 0.00 | 0.00 | 10 | 1020.2 |
| 20260509211325 | 95 | 303 | 6.0 | 12.0 | 0.00 | 0.00 | 0.00 | 10 | 1020.2 |
| 20260509210337 | 94 | 264 | 7.0 | 18.0 | 0.00 | 0.00 | 0.00 | 10 | 1020.4 |
| 20260509205325 | 94 | 267 | 7.0 | 13.0 | 0.00 | 0.00 | 0.00 | 11 | 1020.7 |
| 20260509204334 | 94 | 338 | 2.0 | 15.0 | 0.00 | 0.00 | 0.00 | 11 | 1020.7 |
| 20260509203327 | 94 | 346 | 5.0 | 16.0 | 0.00 | 0.00 | 0.00 | 11 | 1020.9 |
| 20260509202336 | 93 | 300 | 6.0 | 12.0 | 0.00 | 0.00 | 0.00 | 11 | 1021.0 |
| 20260509201344 | 93 | 258 | 7.0 | 15.0 | 0.00 | 0.00 | 0.00 | 11 | 1021.2 |
| 20260509200339 | 93 | 302 | 7.0 | 15.0 | 0.00 | 0.00 | 0.00 | 11 | 1021.4 |
| 20260509195348 | 93 | 308 | 3.0 | 12.0 | 0.00 | 0.00 | 0.00 | 11 | 1021.4 |
| 20260509194336 | 93 | 259 | 6.0 | 11.0 | 0.00 | 0.00 | 0.00 | 12 | 1021.5 |
| 20260509193325 | 92 | 278 | 9.0 | 14.0 | 0.00 | 0.00 | 0.00 | 12 | 1021.6 |
| 20260509192334 | 91 | 288 | 6.0 | 14.0 | 0.00 | 0.00 | 0.00 | 13 | 1021.7 |
| 20260509191359 | 90 | 291 | 6.0 | 13.0 | 0.00 | 0.00 | 0.00 | 13 | 1021.8 |
| 20260509190329 | 91 | 321 | 7.0 | 15.0 | 0.00 | 0.00 | 0.00 | 13 | 1021.8 |
| 20260509185335 | 90 | 350 | 2.0 | 12.0 | 0.00 | 0.00 | 0.00 | 14 | 1021.9 |
| 20260509184324 | 90 | 281 | 5.0 | 11.0 | 0.00 | 0.00 | 0.00 | 14 | 1022.0 |
| 20260509183342 | 89 | 253 | 5.0 | 11.0 | 0.00 | 0.00 | 0.00 | 14 | 1022.2 |
| 20260509182330 | 88 | 300 | 5.0 | 11.0 | 0.00 | 0.00 | 0.00 | 15 | 1022.3 |